Skip Page Navigation
NASA JPL Caltech
NASA Logo - Jet Propulsion Laboratory + View the NASA Portal
+ Center for Near-Earth Object Studies
JPL Home Earth Solar System Stars & Galaxies Technology
JPL Solar System Dynamics
BODIES ORBITS EPHEMERIDES TOOLS PHYSICAL DATA DISCOVERY FAQ SITE MAP
IMPORTANT: The SSD Announcement email list is now available. Major changes are coming in the near future, including possible hostname and/or URL changes. To be notified of such changes, subscribe to this email list.

Please visit this page for more details.


JPL Small-Body Database Browser
Search: [ help ]  
201507 (2003 NC8)
Classification: Main-belt Asteroid          SPK-ID: 2201507
Ephemeris | Orbit Diagram | Orbital Elements | Mission Design | Physical Parameters | Discovery Circumstances | Close-Approach Data ]

[ show orbit diagram ]
Orbital Elements at Epoch 2458600.5 (2019-Apr-27.0) TDB
Reference: JPL 12 (heliocentric ecliptic J2000)
 Element Value Uncertainty (1-sigma)   Units 
e .2870683012226987 1.0416e-07  
a 2.697651179820727 2.0878e-08 au
q 1.923241038338182 2.7502e-07 au
i 14.84987250396926 1.0532e-05 deg
node 313.1721779587895 2.146e-05 deg
peri 47.96077393361021 2.9309e-05 deg
M 170.0396403376089 1.3996e-05 deg
tp 2457836.092758768105
(2017-Mar-23.59275877)
6.0497e-05 TDB
period 1618.367377730905
4.43
1.8788e-05
5.144e-08
d
yr
n .2224464018205508 2.5824e-09 deg/d
Q 3.472061321303272 2.6871e-08 au
  Orbit Determination Parameters
   # obs. used (total)      352  
   data-arc span      7106 days (19.46 yr)  
   first obs. used      1999-10-18  
   last obs. used      2019-04-02  
   planetary ephem.      DE431  
   SB-pert. ephem.      SB431-N16  
   condition code      0  
   norm. resid. RMS      .54848  
   source      ORB  
   producer      Otto Matic  
   solution date      2019-Jul-13 12:04:02  

Additional Information
 Earth MOID = .949107 au 
 Jupiter MOID = 2.11167 au 
 T_jup = 3.262 
[ show covariance matrix ]

Ephemeris | Orbit Diagram | Orbital Elements | Mission Design | Physical Parameters | Discovery Circumstances | Close-Approach Data ]

Physical Parameter Table
Parameter Symbol Value Units Sigma Reference Notes
absolute magnitude H 15.4   n/a MPO470152  

201507 (2003 NC8)          Discovered 2003-Jul-08 by NEAT at Palomar
Reference: 20081212/Numbers.arcLast Updated: 2008-12-12

[ show close-approach data ]
Alternate Designations
 2003 NC8 = 1999 UY60 
Ephemeris | Orbit Diagram | Orbital Elements | Mission Design | Physical Parameters | Discovery Circumstances | Close-Approach Data ]
ABOUT SSD CREDITS/AWARDS PRIVACY/COPYRIGHT GLOSSARY LINKS
FirstGov 2020-Jan-18 23:47 UT
(server date/time)  
NASA Home Page
Site Manager:   Ryan S. Park
Webmaster  Alan B. Chamberlin